Вернуться в каталог

YINHE-8

АктивенСвязьSSO
NORAD 57424·PAYLOAD·🇨🇳 China
Это название спутника еще не подтверждено официальными источниками.

Запущен Jul 23, 2023 с Taiyuan Satellite Launch Center

Loading…

Ближайшие Пролёты (ближайшие 24 часа)

TLE

СвежийSource: Space-Track

Эпоха: Sep 14, 2026, 15:43 UTC

1 57424U 23104A   26257.65546133  .00008824  00000-0  24916-3 0  9994
2 57424  97.2619 324.7280 0007996 144.9777 215.1994 15.36568959175779

Отслеживайте YINHE-8 в реальном времени с AllMySat

Download on the App Store